Погода в Обозерском

Россия / Архангельская область     63°27′16″N   40°17′58″E
темп.,
°C
ветер,
м/с
пор.,
м/с
влажн.,
%
обл.,
%
осадки,
мм/ч
давл.,
гПа
погр.,
м
25 июля, вс
вс2500:00+9зюз267133 0.0 1011126
03:00+7з23838 0.0 101159
06:00+11з3866100 0.0 1011282
09:00+12з3969100 0.1 1012528
12:00+14з496599 0.0 1012934
15:00+18з595829 0.1 10131343
18:00+16зсз3874100 0.8 1013602
21:00+13зсз248399 0.9 1014128
26 июля, пн
пн2600:00+11зсз1289100 0.0 101540
03:00+10зюз259497 0.0 1015102
06:00+12з31190100 0.3 1015433
09:00+12з4996100 0.8 1015460
12:00+17зсз487354 0.8 10151271
15:00+16ссз585872 1.4 10161279
18:00+15с59494 0.0 10181199
21:00+9ссз27685 0.0 1020187
27 июля, вт
вт2700:00+6сз25830 0.0 102191
03:00+5зсз378715 0.0 1021132
06:00+9зсз39695 0.0 1021299
09:00+15сз465312 0.0 10201026
12:00+18сз364212 0.0 10191811
15:00+20сз45358 0.0 10182133
18:00+19с354337 0.0 10171583
21:00+11с11725 0.0 101711
28 июля, ср
ср2800:00+8сз11783 0.0 101710
03:00+8юз22795 0.0 101612
06:00+12юз2469100 0.0 1014129
09:00+12ююв2570100 0.3 1011165
12:00+22з59545 0.3 10081218
15:00+25сз59445 0.3 10061882
18:00+23с46530 0.0 10051107
21:00+14с25850 0.0 1006116
29 июля, чт
чт2900:00+10всв119653 0.0 100610
03:00+10вюв229845 0.0 100537
06:00+12юв248995 0.0 1004172
09:00+15юв257963 0.0 1002342
12:00+21ююв356156 0.3 1000886
15:00+25ююз2450100 0.3 9981268
18:00+18зюз399092 1.8 997395
21:00+16ююв249788 2.9 99671